Flag Weather past 2 weeks in Riverside, California, U.S.A.

Now
55 °F

Clear.


Feels Like: 54 °F
Forecast: 52 / 82 °F
Wind: 6 mph from Northeast

Location: Riverside Municipal Airport

Current Time: Nov 28, 2014 at 3:21:17 AM

Latest Report: Nov 28, 2014 at 2:53 AM


Visibility: 10 mi

Pressure: 29.97 "Hg

Humidity: 34%

Dew point: 27 °F

Location of RiversideLocation

Historic Weather in Riverside — Graph

°F

Riverside temperature yesterday

Maximum temperature yesterday: 90 °F (at 1:53 PM)
Minimum temperature yesterday: 54 °F (at 1:53 AM)
Average temperature yesterday: 69 °F

Past Weeks' High & Low Weather Summary

 TemperatureHumidityPressure
High90 °F (Nov 26, 2:53 PM)93% (Nov 21, 2:53 AM)30.38 "Hg (Nov 21, 2:53 AM)
Low44 °F (Nov 25, 6:53 AM)4% (Nov 16, 11:53 AM)29.89 "Hg (Nov 21, 1:53 PM)
Average62 °F42%30.08 "Hg
* Reported Nov 13 1:53 AM — Nov 28 1:53 AM, Riverside, Weather by CustomWeather, © 2014

Note: Actual official high and low records may vary slightly from our data, if they occured in-between our weather recording intervals... More about our weather records

Advertising

Riverside weather history for previous 24 hours

 ConditionsComfort  
Time TempWeatherWind HumidityBarometerVisibility
1:53 AM
Nov 28
57 °FClear.5 mph31%29.97 "Hg10 mi
12:53 AM57 °FClear.6 mph33%29.98 "Hg10 mi
11:53 PM
Nov 27
59 °FClear.6 mph29%29.99 "Hg10 mi
10:53 PM60 °FClear.6 mph30%30.00 "Hg10 mi
9:53 PM61 °FClear.5 mph29%30.01 "Hg10 mi
8:53 PM63 °FClear.6 mph28%30.01 "Hg10 mi
7:53 PM67 °FClear.No wind20%30.01 "Hg10 mi
6:53 PM70 °FClear.No wind20%30.00 "Hg10 mi
5:53 PM75 °FClear.5 mph16%29.99 "Hg10 mi
4:53 PM79 °FClear.No wind14%29.98 "Hg10 mi
3:53 PM86 °FSunny.5 mph9%29.97 "Hg10 mi
2:53 PM89 °FSunny.6 mph6%29.97 "Hg10 mi
1:53 PM90 °FSunny.No wind6%29.98 "Hg10 mi
12:53 PM89 °FSunny.5 mph6%30.00 "Hg10 mi
11:53 AM86 °FSunny.No wind8%30.03 "Hg10 mi
10:53 AM81 °FScattered clouds.No wind16%30.07 "Hg10 mi
9:53 AM75 °FScattered clouds.No wind18%30.10 "Hg10 mi
8:53 AM65 °FSunny.6 mph25%30.11 "Hg10 mi
7:53 AM59 °FSunny.5 mph28%30.12 "Hg10 mi
6:53 AM55 °FSunny.6 mph31%30.11 "Hg10 mi
5:53 AM56 °FClear.7 mph30%30.10 "Hg10 mi
4:53 AM56 °FClear.6 mph30%30.08 "Hg10 mi
3:53 AM58 °FClear.5 mph28%30.07 "Hg10 mi
Weather by CustomWeather, © 2014

See weather overviewHow to use our weather pages